owner,sensor,date,latitude,longitude,vertical_datum,wind_speed,wind_to_direction,wind_speed_of_gust,qcFlag 
TABS,ioos:station:wmo:42044:1,2015-06-01T00:00:00Z,26.1914,-97.0507,0.0,4.162030754,75.52931882,5.07,'11111222,11111222,11111222' 
TABS,ioos:station:wmo:42044:1,2015-06-01T00:30:00Z,26.1914,-97.0507,0.0,5.393041813,82.75598232,6.63,'11111222,11111222,11111222' 
TABS,ioos:station:wmo:42044:1,2015-06-01T01:00:00Z,26.1914,-97.0507,0.0,5.946301371,94.24392372,7.11,'11111222,11111222,11111222' 
TABS,ioos:station:wmo:42044:1,2015-06-01T01:30:00Z,26.1914,-97.0507,0.0,6.597347952,115.5943903,8.85,'11111222,11111222,11111222' 
TABS,ioos:station:wmo:42044:1,2015-06-01T02:00:00Z,26.1914,-97.0507,0.0,8.196541954,149.743844,9.75,'11111222,11111222,11111222' 
TABS,ioos:station:wmo:42044:1,2015-06-01T02:30:00Z,26.1914,-97.0507,0.0,7.467261881,135.4343653,8.57,'11111222,11111222,11111222' 
TABS,ioos:station:wmo:42044:1,2015-06-01T03:00:00Z,26.1914,-97.0507,0.0,4.987233702,154.4628358,6.25,'11111222,11111222,11111222' 
TABS,ioos:station:wmo:42044:1,2015-06-01T03:30:00Z,26.1914,-97.0507,0.0,2.751181564,161.5653047,3.62,'11111222,11111222,11111222' 
TABS,ioos:station:wmo:42044:1,2015-06-01T04:00:00Z,26.1914,-97.0507,0.0,1.855262785,191.1889842,2.45,'11111222,11111222,11111222' 
TABS,ioos:station:wmo:42044:1,2015-06-01T04:30:00Z,26.1914,-97.0507,0.0,0.778973684,240.8025822,1.51,'11111222,11111222,11111222' 
TABS,ioos:station:wmo:42044:1,2015-06-01T05:00:00Z,26.1914,-97.0507,0.0,0.730821456,196.6994156,1.29,'11111222,11111222,11111222' 
TABS,ioos:station:wmo:42044:1,2015-06-01T05:30:00Z,26.1914,-97.0507,0.0,1.23685084,263.9667611,1.91,'11111222,11111222,11111222' 
TABS,ioos:station:wmo:42044:1,2015-06-01T06:00:00Z,26.1914,-97.0507,0.0,0.762364742,274.5139779,1.71,'11111222,11111222,11111222' 
TABS,ioos:station:wmo:42044:1,2015-06-01T06:30:00Z,26.1914,-97.0507,0.0,1.872591787,278.9089792,2.52,'11111222,11111222,11111222' 
TABS,ioos:station:wmo:42044:1,2015-06-01T07:00:00Z,26.1914,-97.0507,0.0,1.486472334,293.8058878,2.36,'11111222,11111222,11111222' 
TABS,ioos:station:wmo:42044:1,2015-06-01T07:30:00Z,26.1914,-97.0507,0.0,1.83330303,273.4398616,2.72,'11111222,11111222,11111222' 
TABS,ioos:station:wmo:42044:1,2015-06-01T08:00:00Z,26.1914,-97.0507,0.0,1.183384975,239.5345263,1.92,'11111222,11111222,11111222' 
TABS,ioos:station:wmo:42044:1,2015-06-01T08:30:00Z,26.1914,-97.0507,0.0,1.629263637,249.8967607,2.42,'11111222,11111222,11111222' 
TABS,ioos:station:wmo:42044:1,2015-06-01T09:00:00Z,26.1914,-97.0507,0.0,2.538995865,277.0130396,3.21,'11111222,11111222,11111222' 
TABS,ioos:station:wmo:42044:1,2015-06-01T09:30:00Z,26.1914,-97.0507,0.0,2.641685068,258.6475582,3.46,'11111222,11111222,11111222' 
TABS,ioos:station:wmo:42044:1,2015-06-01T10:00:00Z,26.1914,-97.0507,0.0,1.625207679,265.4120326,2.3,'11111222,11111222,11111222' 
TABS,ioos:station:wmo:42044:1,2015-06-01T10:30:00Z,26.1914,-97.0507,0.0,1.174137982,313.6195439,1.85,'11111222,11111222,11111222' 
TABS,ioos:station:wmo:42044:1,2015-06-01T11:00:00Z,26.1914,-97.0507,0.0,1.450965196,312.4860904,2.18,'11111222,11111222,11111222' 
TABS,ioos:station:wmo:42044:1,2015-06-01T11:30:00Z,26.1914,-97.0507,0.0,1.736922566,339.7912685,2.4,'11111222,11111222,11111222' 
TABS,ioos:station:wmo:42044:1,2015-06-01T12:00:00Z,26.1914,-97.0507,0.0,1.802054383,346.1949194,2.89,'11111222,11111222,11111222' 
TABS,ioos:station:wmo:42044:1,2015-06-01T12:30:00Z,26.1914,-97.0507,0.0,1.996997747,352.5189209,2.5,'11111222,11111222,11111222' 
TABS,ioos:station:wmo:42044:1,2015-06-01T13:00:00Z,26.1914,-97.0507,0.0,2.180022936,359.7369673,3.05,'11111222,11144222,11111222' 
TABS,ioos:station:wmo:42044:1,2015-06-01T13:30:00Z,26.1914,-97.0507,0.0,2.38046214,15.84596364,3.91,'11111222,11111222,11111222' 
TABS,ioos:station:wmo:42044:1,2015-06-01T14:00:00Z,26.1914,-97.0507,0.0,2.166333308,15.25487257,3.23,'11111222,11111222,11111222' 
TABS,ioos:station:wmo:42044:1,2015-06-01T14:30:00Z,26.1914,-97.0507,0.0,1.755135322,18.95085828,2.56,'11111222,11111222,11111222' 
TABS,ioos:station:wmo:42044:1,2015-06-01T15:00:00Z,26.1914,-97.0507,0.0,1.441839103,9.984726397,1.94,'11111222,11111222,11111222' 
TABS,ioos:station:wmo:42044:1,2015-06-01T15:30:00Z,26.1914,-97.0507,0.0,1.656049516,7.983086752,2.45,'11111222,11111222,11111222' 
TABS,ioos:station:wmo:42044:1,2015-06-01T16:00:00Z,26.1914,-97.0507,0.0,1.680119043,0.68184834,2.49,'11111222,11111222,11111222' 
TABS,ioos:station:wmo:42044:1,2015-06-01T16:30:00Z,26.1914,-97.0507,0.0,2.171128739,88.15197314,2.97,'11111222,11111222,11111222' 
TABS,ioos:station:wmo:42044:1,2015-06-01T17:00:00Z,26.1914,-97.0507,0.0,2.532113742,76.29265013,3.74,'11111222,11111222,11111222' 
TABS,ioos:station:wmo:42044:1,2015-06-01T17:30:00Z,26.1914,-97.0507,0.0,2.52031744,89.09020076,3.47,'11111222,11111222,11111222' 
TABS,ioos:station:wmo:42044:1,2015-06-01T18:00:00Z,26.1914,-97.0507,0.0,2.820070921,90.4067662,3.5,'11111222,11111222,11111222' 
TABS,ioos:station:wmo:42044:1,2015-06-01T18:30:00Z,26.1914,-97.0507,0.0,2.732270118,77.74374333,3.56,'11111222,11111222,11111222' 
TABS,ioos:station:wmo:42044:1,2015-06-01T19:00:00Z,26.1914,-97.0507,0.0,2.513821792,115.4441081,3.4,'11111222,11111222,11111222' 
TABS,ioos:station:wmo:42044:1,2015-06-01T19:30:00Z,26.1914,-97.0507,0.0,2.941598205,81.59403803,3.65,'11111222,11111222,11111222' 
TABS,ioos:station:wmo:42044:1,2015-06-01T20:00:00Z,26.1914,-97.0507,0.0,2.819397099,85.32033086,3.4,'11111222,11111222,11111222' 
TABS,ioos:station:wmo:42044:1,2015-06-01T20:30:00Z,26.1914,-97.0507,0.0,3.018029158,85.81929075,3.97,'11111222,11111222,11111222' 
TABS,ioos:station:wmo:42044:1,2015-06-01T21:00:00Z,26.1914,-97.0507,0.0,2.93,90.00042092,4.0,'11111222,11111222,11111222' 
TABS,ioos:station:wmo:42044:1,2015-06-01T21:30:00Z,26.1914,-97.0507,0.0,2.98886266,94.41381849,3.94,'11111222,11111222,11111222' 
TABS,ioos:station:wmo:42044:1,2015-06-01T22:00:00Z,26.1914,-97.0507,0.0,3.105559531,99.82669056,4.08,'11111222,11111222,11111222' 
TABS,ioos:station:wmo:42044:1,2015-06-01T22:30:00Z,26.1914,-97.0507,0.0,3.343830139,92.74302586,4.1,'11111222,11111222,11111222' 
TABS,ioos:station:wmo:42044:1,2015-06-01T23:00:00Z,26.1914,-97.0507,0.0,3.350373114,89.14448369,4.31,'11111222,11111222,11111222' 
TABS,ioos:station:wmo:42044:1,2015-06-01T23:30:00Z,26.1914,-97.0507,0.0,3.279085238,104.1213884,4.13,'11111222,11111222,11111222' 
TABS,ioos:station:wmo:42044:1,2015-06-02T00:00:00Z,26.1914,-97.0507,0.0,3.551689739,101.5317889,4.35,'11111222,11111222,11111222' 
TABS,ioos:station:wmo:42044:1,2015-06-02T00:30:00Z,26.1914,-97.0507,0.0,3.914345411,99.55897567,4.74,'11111222,11111222,11111222' 
TABS,ioos:station:wmo:42044:1,2015-06-02T01:00:00Z,26.1914,-97.0507,0.0,3.926245025,101.3103269,4.73,'11111222,11111222,11111222' 
TABS,ioos:station:wmo:42044:1,2015-06-02T01:30:00Z,26.1914,-97.0507,0.0,3.7727046,108.8675572,4.85,'11111222,11111222,11111222' 
TABS,ioos:station:wmo:42044:1,2015-06-02T02:00:00Z,26.1914,-97.0507,0.0,3.904971191,104.534842,4.93,'11111222,11111222,11111222' 
TABS,ioos:station:wmo:42044:1,2015-06-02T02:30:00Z,26.1914,-97.0507,0.0,3.848077442,98.06733378,4.61,'11111222,11111222,11111222' 
TABS,ioos:station:wmo:42044:1,2015-06-02T03:00:00Z,26.1914,-97.0507,0.0,4.21930089,102.4555546,5.24,'11111222,11111222,11111222' 
TABS,ioos:station:wmo:42044:1,2015-06-02T03:30:00Z,26.1914,-97.0507,0.0,3.927798365,107.7895093,4.6,'11111222,11111222,11111222' 
TABS,ioos:station:wmo:42044:1,2015-06-02T04:00:00Z,26.1914,-97.0507,0.0,2.949457577,103.3298955,4.08,'11111222,11111222,11111222' 
TABS,ioos:station:wmo:42044:1,2015-06-02T04:30:00Z,26.1914,-97.0507,0.0,2.801785145,108.3059913,3.44,'11111222,11111222,11111222' 
TABS,ioos:station:wmo:42044:1,2015-06-02T05:00:00Z,26.1914,-97.0507,0.0,2.941241235,120.6634309,3.83,'11111222,11111222,11111222' 
TABS,ioos:station:wmo:42044:1,2015-06-02T05:30:00Z,26.1914,-97.0507,0.0,3.683313725,123.2589747,4.54,'11111222,11111222,11111222' 
TABS,ioos:station:wmo:42044:1,2015-06-02T06:00:00Z,26.1914,-97.0507,0.0,4.398840756,125.7499964,5.25,'11111222,11111222,11111222' 
TABS,ioos:station:wmo:42044:1,2015-06-02T06:30:00Z,26.1914,-97.0507,0.0,4.210890642,124.7471265,5.11,'11111222,11111222,11111222' 
TABS,ioos:station:wmo:42044:1,2015-06-02T07:00:00Z,26.1914,-97.0507,0.0,4.020572099,137.6211742,5.03,'11111222,11111222,11111222' 
TABS,ioos:station:wmo:42044:1,2015-06-02T07:30:00Z,26.1914,-97.0507,0.0,3.450681092,145.3891492,4.59,'11111222,11111222,11111222' 
TABS,ioos:station:wmo:42044:1,2015-06-02T08:00:00Z,26.1914,-97.0507,0.0,3.134661066,160.2357757,4.04,'11111222,11111222,11111222' 
TABS,ioos:station:wmo:42044:1,2015-06-02T08:30:00Z,26.1914,-97.0507,0.0,2.12407627,143.6159437,2.74,'11111222,11111222,11111222' 
TABS,ioos:station:wmo:42044:1,2015-06-02T09:00:00Z,26.1914,-97.0507,0.0,2.003821349,158.9422199,2.86,'11111222,11111222,11111222' 
TABS,ioos:station:wmo:42044:1,2015-06-02T09:30:00Z,26.1914,-97.0507,0.0,2.006638981,148.4488993,2.61,'11111222,11111222,11111222' 
TABS,ioos:station:wmo:42044:1,2015-06-02T10:00:00Z,26.1914,-97.0507,0.0,2.214610575,141.7849492,2.87,'11111222,11111222,11111222' 
TABS,ioos:station:wmo:42044:1,2015-06-02T10:30:00Z,26.1914,-97.0507,0.0,2.688215021,127.5949154,3.61,'11111222,11111222,11111222' 
TABS,ioos:station:wmo:42044:1,2015-06-02T11:00:00Z,26.1914,-97.0507,0.0,2.826764935,119.921217,3.45,'11111222,11111222,11111222' 
TABS,ioos:station:wmo:42044:1,2015-06-02T11:30:00Z,26.1914,-97.0507,0.0,2.755104354,125.2479136,3.48,'11111222,11111222,11111222' 
TABS,ioos:station:wmo:42044:1,2015-06-02T12:00:00Z,26.1914,-97.0507,0.0,3.112956794,139.2991927,3.85,'11111222,11111222,11111222' 
TABS,ioos:station:wmo:42044:1,2015-06-02T12:30:00Z,26.1914,-97.0507,0.0,2.962853354,129.3849791,3.59,'11111222,11111222,11111222' 
TABS,ioos:station:wmo:42044:1,2015-06-02T13:00:00Z,26.1914,-97.0507,0.0,3.52790306,123.5552787,4.24,'11111222,11111222,11111222' 
TABS,ioos:station:wmo:42044:1,2015-06-02T13:30:00Z,26.1914,-97.0507,0.0,3.747692623,135.2165246,4.76,'11111222,11111222,11111222' 
TABS,ioos:station:wmo:42044:1,2015-06-02T14:00:00Z,26.1914,-97.0507,0.0,3.519502806,131.8907317,4.62,'11111222,11111222,11111222' 
TABS,ioos:station:wmo:42044:1,2015-06-02T14:30:00Z,26.1914,-97.0507,0.0,3.262590995,129.1538181,4.14,'11111222,11111222,11111222' 
TABS,ioos:station:wmo:42044:1,2015-06-02T15:00:00Z,26.1914,-97.0507,0.0,2.742626478,140.6227032,4.23,'11111222,11111222,11111222' 
TABS,ioos:station:wmo:42044:1,2015-06-02T15:30:00Z,26.1914,-97.0507,0.0,3.224903099,136.0053993,3.78,'11111222,11111222,11111222' 
TABS,ioos:station:wmo:42044:1,2015-06-02T16:00:00Z,26.1914,-97.0507,0.0,3.019155511,140.5106085,4.22,'11111222,11111222,11111222' 
TABS,ioos:station:wmo:42044:1,2015-06-02T16:30:00Z,26.1914,-97.0507,0.0,2.454648651,119.8031363,3.14,'11111222,11111222,11111222' 
TABS,ioos:station:wmo:42044:1,2015-06-02T17:00:00Z,26.1914,-97.0507,0.0,3.028481468,127.891909,4.08,'11111222,11111222,11111222' 
TABS,ioos:station:wmo:42044:1,2015-06-02T17:30:00Z,26.1914,-97.0507,0.0,2.656633208,128.1212185,3.5,'11111222,11111222,11111222' 
TABS,ioos:station:wmo:42044:1,2015-06-02T18:00:00Z,26.1914,-97.0507,0.0,3.135235238,125.261843,4.13,'11111222,11111222,11111222' 
TABS,ioos:station:wmo:42044:1,2015-06-02T18:30:00Z,26.1914,-97.0507,0.0,2.577013776,122.6420595,3.72,'11111222,11111222,11111222' 
TABS,ioos:station:wmo:42044:1,2015-06-02T19:00:00Z,26.1914,-97.0507,0.0,3.142133033,137.3218408,4.23,'11111222,11111222,11111222' 
TABS,ioos:station:wmo:42044:1,2015-06-02T19:30:00Z,26.1914,-97.0507,0.0,3.017830346,129.7572815,3.75,'11111222,11111222,11111222' 
TABS,ioos:station:wmo:42044:1,2015-06-02T20:00:00Z,26.1914,-97.0507,0.0,3.189435687,117.850931,4.34,'11111222,11111222,11111222' 
TABS,ioos:station:wmo:42044:1,2015-06-02T20:30:00Z,26.1914,-97.0507,0.0,3.582652649,115.6355997,4.72,'11111222,11111222,11111222' 
TABS,ioos:station:wmo:42044:1,2015-06-02T21:00:00Z,26.1914,-97.0507,0.0,4.125542389,122.226549,5.01,'11111222,11111222,11111222' 
TABS,ioos:station:wmo:42044:1,2015-06-02T21:30:00Z,26.1914,-97.0507,0.0,4.082082802,121.7825586,5.02,'11111222,11111222,11111222' 
TABS,ioos:station:wmo:42044:1,2015-06-02T22:00:00Z,26.1914,-97.0507,0.0,4.162703448,120.1378963,5.14,'11111222,11111222,11111222' 
TABS,ioos:station:wmo:42044:1,2015-06-02T22:30:00Z,26.1914,-97.0507,0.0,4.178851517,131.7021804,5.12,'11111222,11111222,11111222' 
TABS,ioos:station:wmo:42044:1,2015-06-02T23:00:00Z,26.1914,-97.0507,0.0,4.297766862,121.1012851,5.4,'11111222,11111222,11111222' 
TABS,ioos:station:wmo:42044:1,2015-06-02T23:30:00Z,26.1914,-97.0507,0.0,4.420961434,123.6544651,5.66,'11111222,11111222,11111222' 
TABS,ioos:station:wmo:42044:1,2015-06-03T00:00:00Z,26.1914,-97.0507,0.0,3.694238758,121.4960828,4.31,'11111222,11111222,11111222' 
TABS,ioos:station:wmo:42044:1,2015-06-03T00:30:00Z,26.1914,-97.0507,0.0,4.25170554,113.1281782,5.38,'11111222,11111222,11111222' 
TABS,ioos:station:wmo:42044:1,2015-06-03T01:00:00Z,26.1914,-97.0507,0.0,4.443253313,107.8236526,5.38,'11111222,11111222,11111222' 
TABS,ioos:station:wmo:42044:1,2015-06-03T01:30:00Z,26.1914,-97.0507,0.0,4.293308747,112.024815,5.24,'11111222,11111222,11111222' 
TABS,ioos:station:wmo:42044:1,2015-06-03T02:00:00Z,26.1914,-97.0507,0.0,4.845141897,100.104281,5.97,'11111222,11111222,11111222' 
TABS,ioos:station:wmo:42044:1,2015-06-03T02:30:00Z,26.1914,-97.0507,0.0,5.083079775,112.6809275,5.92,'11111222,11111222,11111222' 
TABS,ioos:station:wmo:42044:1,2015-06-03T03:00:00Z,26.1914,-97.0507,0.0,5.237795338,117.6417173,6.34,'11111222,11111222,11111222' 
TABS,ioos:station:wmo:42044:1,2015-06-03T03:30:00Z,26.1914,-97.0507,0.0,5.47789193,124.2125834,6.69,'11111222,11111222,11111222' 
TABS,ioos:station:wmo:42044:1,2015-06-03T04:00:00Z,26.1914,-97.0507,0.0,5.283502626,128.2367379,6.62,'11111222,11111222,11111222' 
TABS,ioos:station:wmo:42044:1,2015-06-03T04:30:00Z,26.1914,-97.0507,0.0,5.533832307,129.5009967,6.81,'11111222,11111222,11111222' 
TABS,ioos:station:wmo:42044:1,2015-06-03T05:00:00Z,26.1914,-97.0507,0.0,6.022167384,129.0018878,7.05,'11111222,11111222,11111222' 
TABS,ioos:station:wmo:42044:1,2015-06-03T05:30:00Z,26.1914,-97.0507,0.0,5.746172639,125.2946004,6.81,'11111222,11111222,11111222' 
TABS,ioos:station:wmo:42044:1,2015-06-03T06:00:00Z,26.1914,-97.0507,0.0,5.618336053,125.2179315,6.42,'11111222,11111222,11111222' 
TABS,ioos:station:wmo:42044:1,2015-06-03T06:30:00Z,26.1914,-97.0507,0.0,5.62541554,141.1337074,6.85,'11111222,11111222,11111222' 
TABS,ioos:station:wmo:42044:1,2015-06-03T07:00:00Z,26.1914,-97.0507,0.0,5.640443245,144.8168712,6.53,'11111222,11111222,11111222' 
TABS,ioos:station:wmo:42044:1,2015-06-03T07:30:00Z,26.1914,-97.0507,0.0,5.5394043,157.8339165,6.52,'11111222,11111222,11111222' 
TABS,ioos:station:wmo:42044:1,2015-06-03T08:00:00Z,26.1914,-97.0507,0.0,5.43530128,154.8496413,6.51,'11111222,11111222,11111222' 
TABS,ioos:station:wmo:42044:1,2015-06-03T08:30:00Z,26.1914,-97.0507,0.0,5.418643742,158.4541085,6.21,'11111222,11111222,11111222' 
TABS,ioos:station:wmo:42044:1,2015-06-03T09:00:00Z,26.1914,-97.0507,0.0,5.255187913,154.1666154,6.31,'11111222,11111222,11111222' 
TABS,ioos:station:wmo:42044:1,2015-06-03T09:30:00Z,26.1914,-97.0507,0.0,5.492549499,156.842766,6.46,'11111222,11111222,11111222' 
TABS,ioos:station:wmo:42044:1,2015-06-03T10:00:00Z,26.1914,-97.0507,0.0,5.225648285,150.5409906,6.25,'11111222,11111222,11111222' 
TABS,ioos:station:wmo:42044:1,2015-06-03T10:30:00Z,26.1914,-97.0507,0.0,5.107367228,148.613262,6.38,'11111222,11111222,11111222' 
TABS,ioos:station:wmo:42044:1,2015-06-03T11:00:00Z,26.1914,-97.0507,0.0,5.197470539,154.4705722,6.1,'11111222,11111222,11111222' 
TABS,ioos:station:wmo:42044:1,2015-06-03T11:30:00Z,26.1914,-97.0507,0.0,5.109256306,149.6711953,6.24,'11111222,11111222,11111222' 
TABS,ioos:station:wmo:42044:1,2015-06-03T12:00:00Z,26.1914,-97.0507,0.0,4.781736086,148.3378336,5.92,'11111222,11111222,11111222' 
TABS,ioos:station:wmo:42044:1,2015-06-03T12:30:00Z,26.1914,-97.0507,0.0,4.959395124,147.0151661,6.18,'11111222,11111222,11111222' 
TABS,ioos:station:wmo:42044:1,2015-06-03T13:00:00Z,26.1914,-97.0507,0.0,4.810498935,140.6522339,5.5,'11111222,11111222,11111222' 
TABS,ioos:station:wmo:42044:1,2015-06-03T13:30:00Z,26.1914,-97.0507,0.0,5.021324526,147.607857,6.17,'11111222,11111222,11111222' 
TABS,ioos:station:wmo:42044:1,2015-06-03T14:00:00Z,26.1914,-97.0507,0.0,5.308003391,149.4252792,6.22,'11111222,11111222,11111222' 
TABS,ioos:station:wmo:42044:1,2015-06-03T14:30:00Z,26.1914,-97.0507,0.0,4.887872748,147.4481808,6.05,'11111222,11111222,11111222' 
TABS,ioos:station:wmo:42044:1,2015-06-03T15:00:00Z,26.1914,-97.0507,0.0,4.760861267,148.7475738,6.05,'11111222,11111222,11111222' 
TABS,ioos:station:wmo:42044:1,2015-06-03T15:30:00Z,26.1914,-97.0507,0.0,4.496153912,146.9817624,5.63,'11111222,11111222,11111222' 
TABS,ioos:station:wmo:42044:1,2015-06-03T16:00:00Z,26.1914,-97.0507,0.0,4.126039263,142.8804438,5.36,'11111222,11111222,11111222' 
TABS,ioos:station:wmo:42044:1,2015-06-03T16:30:00Z,26.1914,-97.0507,0.0,4.246092321,173.6451322,5.26,'11111222,11111222,11111222' 
TABS,ioos:station:wmo:42044:1,2015-06-03T17:00:00Z,26.1914,-97.0507,0.0,3.560224712,152.5715334,4.37,'11111222,11111222,11111222' 
TABS,ioos:station:wmo:42044:1,2015-06-03T17:30:00Z,26.1914,-97.0507,0.0,4.363714014,140.766325,5.54,'11111222,11111222,11111222' 
TABS,ioos:station:wmo:42044:1,2015-06-03T18:00:00Z,26.1914,-97.0507,0.0,4.360332556,130.8154093,5.42,'11111222,11111222,11111222' 
TABS,ioos:station:wmo:42044:1,2015-06-03T18:30:00Z,26.1914,-97.0507,0.0,4.486000446,126.8446881,5.61,'11111222,11111222,11111222' 
TABS,ioos:station:wmo:42044:1,2015-06-03T19:00:00Z,26.1914,-97.0507,0.0,4.950353523,130.576513,6.53,'11111222,11111222,11111222' 
TABS,ioos:station:wmo:42044:1,2015-06-03T19:30:00Z,26.1914,-97.0507,0.0,4.421085839,124.1217364,5.47,'11111222,11111222,11111222' 
TABS,ioos:station:wmo:42044:1,2015-06-03T20:00:00Z,26.1914,-97.0507,0.0,4.830372656,126.1585218,6.36,'11111222,11111222,11111222' 
TABS,ioos:station:wmo:42044:1,2015-06-03T20:30:00Z,26.1914,-97.0507,0.0,5.294393261,130.0968779,6.39,'11111222,11111222,11111222' 
TABS,ioos:station:wmo:42044:1,2015-06-03T21:00:00Z,26.1914,-97.0507,0.0,5.736375162,124.6323228,7.1,'11111222,11111222,11111222' 
TABS,ioos:station:wmo:42044:1,2015-06-03T21:30:00Z,26.1914,-97.0507,0.0,5.11645385,130.1643505,6.14,'11111222,11111222,11111222' 
TABS,ioos:station:wmo:42044:1,2015-06-03T22:00:00Z,26.1914,-97.0507,0.0,5.445851632,128.3643795,6.45,'11111222,11111222,11111222' 
TABS,ioos:station:wmo:42044:1,2015-06-03T22:30:00Z,26.1914,-97.0507,0.0,6.036174285,141.5925029,7.28,'11111222,11111222,11111222' 
TABS,ioos:station:wmo:42044:1,2015-06-03T23:00:00Z,26.1914,-97.0507,0.0,5.363674114,139.6886728,6.67,'11111222,11111222,11111222' 
TABS,ioos:station:wmo:42044:1,2015-06-03T23:30:00Z,26.1914,-97.0507,0.0,6.018056165,143.377936,7.36,'11111222,11111222,11111222' 
TABS,ioos:station:wmo:42044:1,2015-06-04T00:00:00Z,26.1914,-97.0507,0.0,5.972277622,145.2990705,7.05,'11111222,11111222,11111222' 
TABS,ioos:station:wmo:42044:1,2015-06-04T00:30:00Z,26.1914,-97.0507,0.0,6.173920958,144.5597087,7.26,'11111222,11111222,11111222' 
TABS,ioos:station:wmo:42044:1,2015-06-04T01:00:00Z,26.1914,-97.0507,0.0,6.344170553,145.2080366,7.39,'11111222,11111222,11111222' 
TABS,ioos:station:wmo:42044:1,2015-06-04T01:30:00Z,26.1914,-97.0507,0.0,5.772486466,136.6849961,6.61,'11111222,11111222,11111222' 
TABS,ioos:station:wmo:42044:1,2015-06-04T02:00:00Z,26.1914,-97.0507,0.0,6.253127218,136.5554716,7.04,'11111222,11111222,11111222' 
TABS,ioos:station:wmo:42044:1,2015-06-04T02:30:00Z,26.1914,-97.0507,0.0,6.248919907,145.8270475,7.57,'11111222,11111222,11111222' 
TABS,ioos:station:wmo:42044:1,2015-06-04T03:00:00Z,26.1914,-97.0507,0.0,6.119616001,147.4788285,7.15,'11111222,11111222,11111222' 
TABS,ioos:station:wmo:42044:1,2015-06-04T03:30:00Z,26.1914,-97.0507,0.0,6.008002996,143.1876184,6.84,'11111222,11111222,11111222' 
TABS,ioos:station:wmo:42044:1,2015-06-04T04:00:00Z,26.1914,-97.0507,0.0,5.855399218,144.3829911,6.71,'11111222,11111222,11111222' 
TABS,ioos:station:wmo:42044:1,2015-06-04T04:30:00Z,26.1914,-97.0507,0.0,5.529059595,147.6324153,6.68,'11111222,11111222,11111222' 
TABS,ioos:station:wmo:42044:1,2015-06-04T05:00:00Z,26.1914,-97.0507,0.0,5.822722731,148.4121213,6.85,'11111222,11111222,11111222' 
TABS,ioos:station:wmo:42044:1,2015-06-04T05:30:00Z,26.1914,-97.0507,0.0,5.814206739,148.3605029,6.76,'11111222,11111222,11111222' 
TABS,ioos:station:wmo:42044:1,2015-06-04T06:00:00Z,26.1914,-97.0507,0.0,6.006213449,153.8191775,7.36,'11111222,11111222,11111222' 
TABS,ioos:station:wmo:42044:1,2015-06-04T06:30:00Z,26.1914,-97.0507,0.0,6.222057538,150.9635624,7.21,'11111222,11111222,11111222' 
TABS,ioos:station:wmo:42044:1,2015-06-04T07:00:00Z,26.1914,-97.0507,0.0,6.212889827,160.0486664,7.45,'11111222,11111222,11111222' 
TABS,ioos:station:wmo:42044:1,2015-06-04T07:30:00Z,26.1914,-97.0507,0.0,5.787054518,153.0810024,6.78,'11111222,11111222,11111222' 
TABS,ioos:station:wmo:42044:1,2015-06-04T08:00:00Z,26.1914,-97.0507,0.0,5.625744395,151.2028699,6.77,'11111222,11111222,11111222' 
TABS,ioos:station:wmo:42044:1,2015-06-04T08:30:00Z,26.1914,-97.0507,0.0,5.178117419,148.1825637,6.11,'11111222,11111222,11111222' 
TABS,ioos:station:wmo:42044:1,2015-06-04T09:00:00Z,26.1914,-97.0507,0.0,4.929523304,156.1911949,5.71,'11111222,11111222,11111222' 
TABS,ioos:station:wmo:42044:1,2015-06-04T09:30:00Z,26.1914,-97.0507,0.0,4.893311762,149.8196988,5.77,'11111222,11111222,11111222' 
TABS,ioos:station:wmo:42044:1,2015-06-04T10:00:00Z,26.1914,-97.0507,0.0,5.381050083,154.5781251,6.3,'11111222,11111222,11111222' 
TABS,ioos:station:wmo:42044:1,2015-06-04T10:30:00Z,26.1914,-97.0507,0.0,5.313049972,153.869271,6.33,'11111222,11111222,11111222' 
TABS,ioos:station:wmo:42044:1,2015-06-04T11:00:00Z,26.1914,-97.0507,0.0,4.982298666,152.7666311,5.95,'11111222,11111222,11111222' 
TABS,ioos:station:wmo:42044:1,2015-06-04T11:30:00Z,26.1914,-97.0507,0.0,4.901448765,149.1969056,6.0,'11111222,11111222,11111222' 
TABS,ioos:station:wmo:42044:1,2015-06-04T12:00:00Z,26.1914,-97.0507,0.0,5.004078337,151.0791267,5.84,'11111222,11111222,11111222' 
TABS,ioos:station:wmo:42044:1,2015-06-04T12:30:00Z,26.1914,-97.0507,0.0,5.205247352,161.9830056,5.93,'11111222,11111222,11111222' 
TABS,ioos:station:wmo:42044:1,2015-06-04T13:00:00Z,26.1914,-97.0507,0.0,5.422444098,157.7868013,6.24,'11111222,11111222,11111222' 
TABS,ioos:station:wmo:42044:1,2015-06-04T13:30:00Z,26.1914,-97.0507,0.0,5.034212947,158.0720451,5.89,'11111222,11111222,11111222' 
TABS,ioos:station:wmo:42044:1,2015-06-04T14:00:00Z,26.1914,-97.0507,0.0,5.218620507,160.5236805,6.21,'11111222,11111222,11111222' 
TABS,ioos:station:wmo:42044:1,2015-06-04T14:30:00Z,26.1914,-97.0507,0.0,4.879231497,153.8553469,5.94,'11111222,11111222,11111222' 
TABS,ioos:station:wmo:42044:1,2015-06-04T15:00:00Z,26.1914,-97.0507,0.0,5.012115322,158.7083219,5.95,'11111222,11111222,11111222' 
TABS,ioos:station:wmo:42044:1,2015-06-04T15:30:00Z,26.1914,-97.0507,0.0,4.938825771,151.9823824,6.16,'11111222,11111222,11111222' 
TABS,ioos:station:wmo:42044:1,2015-06-04T16:00:00Z,26.1914,-97.0507,0.0,5.283654039,155.035784,6.03,'11111222,11111222,11111222' 
TABS,ioos:station:wmo:42044:1,2015-06-04T16:30:00Z,26.1914,-97.0507,0.0,5.729729488,154.4638383,6.8,'11111222,11111222,11111222' 
TABS,ioos:station:wmo:42044:1,2015-06-04T17:00:00Z,26.1914,-97.0507,0.0,5.541768671,155.9328021,6.42,'11111222,11111222,11111222' 
TABS,ioos:station:wmo:42044:1,2015-06-04T17:30:00Z,26.1914,-97.0507,0.0,5.431555947,150.5563322,6.59,'11111222,11111222,11111222' 
TABS,ioos:station:wmo:42044:1,2015-06-04T18:00:00Z,26.1914,-97.0507,0.0,4.952746713,150.4849818,5.87,'11111222,11111222,11111222' 
TABS,ioos:station:wmo:42044:1,2015-06-04T18:30:00Z,26.1914,-97.0507,0.0,4.858240422,152.0110374,5.71,'11111222,11111222,11111222' 